Home   Weather   Vaihingen an der Enz   Past weeks

Flag for Germany Past Weather in Vaihingen an der Enz, Baden-Württemberg, Germany — Yesterday and Last 2 Weeks

Now
52 °F

Passing clouds.


Feels Like: 52 °F
Forecast: 49 / 76 °F
Wind: 1 mph from North

Location: Stuttgart-Echterdingen

Current Time: Aug 21, 2017 at 6:48:16 am

Latest Report: Aug 21, 2017 at 6:20 am


Visibility: N/A

Pressure: 30.24 "Hg

Humidity: 94%

Dew Point: 50 °F

Location of Vaihingen an der EnzLocation

Past Weather in Vaihingen an der Enz — Graph

°F

Vaihingen an der Enz Temperature Yesterday

Maximum temperature yesterday: 68 °F (at 4:50 pm)
Minimum temperature yesterday: 50 °F (at 5:50 am)
Average temperature yesterday: 59 °F

High & Low Weather Summary for the Past Weeks

 TemperatureHumidityPressure
High84 °F (Aug 15, 1:20 pm)100% (Aug 10, 1:50 am)30.27 "Hg (Aug 10, 1:50 am)
Low50 °F (Aug 20, 5:50 am)40% (Aug 15, 1:50 pm)29.83 "Hg (Aug 8, 8:50 am)
Average64 °F78%30.09 "Hg
* Reported Aug 6 5:20 am — Aug 21 5:20 am, Vaihingen an der Enz. Weather by CustomWeather, © 2017

Note: Actual official high and low records may vary slightly from our data, if they occured in-between our weather recording intervals... More about our weather records

Advertising

Vaihingen an der Enz Weather History for the Previous 24 Hours

Scroll right to see more
 ConditionsComfort  
Time TempWeatherWind HumidityBarometerVisibility
5:20 am
Mon, Aug 21
52 °FClear.1 mph88%30.24 "Hg10 mi
4:50 am52 °FClear.1 mph88%30.24 "Hg10 mi
4:20 am52 °FClear.1 mph88%30.24 "Hg10 mi
3:50 am54 °FClear.1 mph82%30.24 "Hg10 mi
2:50 am54 °FClear.1 mph82%30.27 "Hg10 mi
2:20 am54 °FClear.1 mph82%30.27 "Hg10 mi
1:50 am54 °FClear.2 mph82%30.27 "Hg10 mi
1:20 am54 °FClear.1 mph77%30.27 "Hg10 mi
12:50 am52 °FClear.3 mph82%30.27 "Hg10 mi
12:20 am54 °FClear.7 mph82%30.27 "Hg10 mi
11:50 pm
Sun, Aug 20
55 °FClear.5 mph77%30.27 "Hg10 mi
11:20 pm55 °FClear.8 mph77%30.27 "Hg10 mi
10:50 pm57 °FClear.6 mph72%30.27 "Hg10 mi
10:20 pm57 °FClear.3 mph67%30.27 "Hg10 mi
9:50 pm57 °FClear.5 mph72%30.27 "Hg10 mi
9:20 pm61 °FClear.5 mph59%30.27 "Hg10 mi
8:50 pm61 °FClear.6 mph59%30.24 "Hg10 mi
8:20 pm63 °FSunny.7 mph59%30.24 "Hg10 mi
7:50 pm64 °FSunny.9 mph56%30.24 "Hg10 mi
7:20 pm64 °FSunny.12 mph56%30.24 "Hg10 mi
6:50 pm66 °FSunny.14 mph56%30.24 "Hg10 mi
6:20 pm66 °FPassing clouds.12 mph52%30.24 "HgN/A
5:50 pm66 °FSunny.13 mph52%30.24 "Hg10 mi
5:20 pm66 °FPassing clouds.10 mph52%30.24 "HgN/A
4:50 pm68 °FPassing clouds.12 mph53%30.24 "HgN/A
4:20 pm66 °FPassing clouds.8 mph52%30.24 "HgN/A
3:50 pm66 °FPassing clouds.8 mph49%30.24 "HgN/A
2:50 pm66 °FScattered clouds.7 mph52%30.24 "HgN/A
2:20 pm64 °FScattered clouds.7 mph56%30.24 "HgN/A
1:50 pm64 °FBroken clouds.5 mph56%30.24 "HgN/A
1:20 pm63 °FSprinkles. Broken clouds.7 mph59%30.24 "HgN/A
12:50 pm64 °FBroken clouds.6 mph60%30.24 "HgN/A
12:20 pm63 °FBroken clouds.7 mph59%30.24 "HgN/A
11:50 am64 °FPartly sunny.8 mph56%30.24 "HgN/A
11:20 am64 °FScattered clouds.7 mph56%30.24 "HgN/A
10:50 am63 °FScattered clouds.6 mph59%30.24 "HgN/A
10:20 am61 °FPassing clouds.5 mph63%30.24 "HgN/A
9:50 am61 °FPassing clouds.3 mph68%30.24 "HgN/A
9:20 am59 °FPassing clouds.1 mph72%30.24 "HgN/A
8:50 am57 °FSunny.1 mph82%30.24 "Hg10 mi
8:20 am54 °FSunny.1 mph94%30.24 "Hg10 mi
7:50 am54 °FSunny.1 mph88%30.24 "Hg10 mi
7:20 am54 °FSunny.2 mph94%30.24 "Hg10 mi
6:50 am52 °FSunny.2 mph88%30.21 "Hg10 mi
6:20 am50 °FPassing clouds.3 mph94%30.21 "HgN/A
Weather by CustomWeather, © 2017

See weather overviewHow to use our weather pages